GFSNE_850_temp_225.txt.gz
Temp
11 10 10 9 8 7 5 3 1 -2 -2 1 1 2 2 3 2 1 2 2 2 1 0 1 1 2 3 4 4 5 7 7 7 7 7 8 6 5
10 9 9 8 7 5 4 3 2 -1 -3 -1 2 1 1 1 0 0 -2 -2 -0 0 0 0 0 1 2 3 4 5 6 6 6 6 6 6 6 5
9 8 8 6 6 4 3 2 2 0 -3 -1 -0 -2 -2 -3 -2 -3 -3 -3 -2 -1 -1 -0 0 0 1 3 3 4 5 5 6 6 6 6 6 5
8 7 6 6 5 4 3 3 2 2 -3 -3 1 1 0 -3 -2 -2 -2 -2 -3 -3 -2 -1 0 1 1 2 3 4 5 5 5 6 5 5 5 5
7 6 5 5 4 3 3 2 2 1 0 -2 -1 -1 -2 -2 -2 -2 -1 -2 -2 -2 -2 -1 0 1 1 2 3 4 4 5 5 5 5 5 4 4
6 5 4 3 4 3 2 2 1 1 1 -1 -3 -3 -3 -2 -2 -3 -2 -2 -2 -2 -1 -1 0 1 1 2 2 3 4 4 4 4 4 5 4 4
4 4 3 3 3 2 2 1 1 1 0 -3 -3 -3 -3 -2 -3 -3 -4 -3 -1 -2 -1 -0 0 1 1 1 3 3 4 4 5 5 4 4 4 4
3 2 3 3 2 1 1 1 0 0 -1 -3 -2 -3 -2 -2 -2 -3 -4 -4 -3 -2 -2 -1 -1 1 0 1 1 2 4 4 4 4 4 4 4 3
2 2 3 2 1 1 1 1 1 -0 -3 -2 -2 -3 -2 -2 -2 -3 -3 -3 -3 -2 -2 -1 -1 -0 0 1 1 3 4 5 4 4 4 4 3 3
2 2 2 1 1 1 1 1 1 -1 -2 -3 -3 -2 -3 -3 -3 -3 -2 -2 -2 -2 -2 -2 -2 -1 -0 1 2 2 3 3 3 4 3 2 2 2
2 2 1 1 1 1 1 1 0 -1 -3 -2 -2 -2 -2 -2 -2 -2 -2 -2 -2 -2 -2 -2 -3 -2 -1 1 1 1 2 3 2 1 2 2 1 1
1 1 1 1 1 1 1 1 1 -0 -2 -2 -2 -2 -2 -2 -2 -2 -2 -2 -2 -2 -2 -3 -3 -2 -4 -3 -2 -1 0 0 1 -0 2 1 0 -0
0 -0 -0 -0 1 1 0 0 0 -1 -3 -3 -2 -3 -2 -2 -2 -2 -2 -2 -2 -2 -2 -3 -3 -2 -4 -5 -4 -4 -3 -3 -2 -0 -0 -0 -0 -0
-0 -0 -1 -0 1 0 0 0 -1 -2 -2 -3 -3 -3 -3 -3 -3 -3 -3 -2 -2 -2 -2 -2 -2 -2 -3 -4 -4 -4 -1 -1 -1 -1 -1 -2 -2 -2
-1 -1 -1 -0 -0 -0 -1 -2 -2 -2 -2 -3 -3 -3 -4 -4 -5 -4 -3 -3 -2 -2 -2 -2 -3 -3 -2 -1 -2 -3 -3 -2 -2 -2 -2 -3 -3 -3
-1 -1 -2 -2 -2 -2 -2 -2 -2 -3 -3 -4 -4 -4 -4 -5 -4 -4 -4 -4 -4 -3 -3 -3 -3 -4 -3 -3 -3 -4 -4 -4 -4 -4 -4 -4 -4 -4
-4 -3 -4 -3 -4 -4 -4 -3 -3 -4 -4 -4 -5 -5 -5 -5 -5 -5 -4 -4 -5 -5 -5 -5 -6 -5 -5 -4 -5 -5 -5 -5 -5 -5 -5 -5 -6 -6
-5 -5 -5 -6 -5 -5 -4 -4 -4 -4 -4 -5 -5 -5 -5 -5 -5 -5 -5 -5 -5 -6 -6 -7 -6 -6 -6 -7 -6 -6 -6 -6 -6 -6 -6 -5 -6 -7
-6 -6 -6 -6 -6 -6 -5 -4 -4 -4 -5 -5 -5 -5 -6 -6 -6 -6 -6 -6 -6 -7 -7 -7 -7 -7 -7 -8 -9 -7 -6 -7 -7 -7 -7 -7 -7 -9
-7 -6 -6 -6 -5 -5 -5 -5 -6 -5 -5 -5 -5 -6 -6 -6 -6 -7 -7 -7 -7 -7 -7 -8 -7 -7 -7 -8 -8 -8 -8 -7 -7 -8 -8 -9 -9 -10
-7 -6 -6 -6 -5 -5 -5 -5 -5 -5 -5 -5 -6 -6 -6 -7 -7 -7 -7 -7 -7 -7 -8 -8 -8 -8 -7 -8 -8 -9 -9 -9 -8 -8 -9 -9 -10 -10
-7 -7 -7 -6 -6 -5 -5 -5 -5 -5 -5 -5 -6 -6 -7 -7 -7 -7 -7 -7 -7 -8 -8 -8 -8 -8 -8 -8 -9 -9 -10 -10 -9 -9 -9 -9 -9 -10
-8 -8 -8 -7 -6 -6 -6 -6 -6 -6 -6 -6 -6 -6 -7 -7 -7 -7 -7 -7 -7 -7 -8 -8 -9 -9 -9 -9 -9 -10 -10 -10 -10 -10 -10 -9 -10 -9

GFSNE_850_temp_228.txt.gz
Temp
12 11 11 10 10 9 8 6 4 1 -1 4 3 4 3 3 3 3 2 2 2 3 3 3 2 1 1 1 2 2 3 5 6 7 8 8 8 7
11 11 10 9 9 8 7 5 4 2 -2 2 3 2 2 2 2 2 1 -1 -2 -2 1 0 -1 -1 0 1 1 2 3 5 5 6 7 7 7 8
10 10 10 9 8 7 5 4 4 2 -0 3 2 1 2 0 1 -0 -1 -1 -1 -2 -2 -2 -1 -1 1 1 1 2 3 4 5 6 6 6 6 6
10 10 9 8 7 6 5 4 3 2 0 0 2 2 -1 -3 -3 -2 -2 -2 -1 -1 -3 -3 -2 -2 -0 1 2 2 2 4 4 5 5 5 5 6
9 9 8 7 6 5 4 4 3 3 2 0 1 -1 -2 -3 -3 -1 -2 -3 -2 -2 -2 -2 -1 -1 -0 0 1 2 2 4 4 5 5 5 5 5
9 8 7 6 6 4 4 3 3 2 2 0 -1 -1 -3 -3 -3 -2 -1 -2 -1 -2 -2 -1 -0 0 0 0 1 1 2 3 3 4 5 5 5 5
8 7 6 5 4 3 3 3 2 1 1 0 -1 -2 -3 -3 -3 -2 -2 -2 -2 -2 -2 -1 -0 0 1 1 0 2 2 2 3 4 3 5 5 4
7 6 5 4 3 3 2 2 1 1 0 -2 -3 -3 -3 -3 -3 -3 -2 -2 -2 -2 -1 -1 -1 -0 0 1 1 1 2 3 3 3 3 4 4 4
5 5 3 3 2 2 2 2 1 0 -1 -3 -3 -2 -2 -3 -3 -2 -2 -2 -2 -2 -2 -2 -2 -1 0 1 1 1 2 2 3 4 4 3 4 4
5 4 2 2 2 2 2 2 1 0 -2 -3 -3 -2 -2 -2 -2 -3 -2 -2 -1 -2 -2 -2 -2 -2 -1 1 1 1 2 2 4 4 5 3 3 4
3 3 2 1 1 2 1 1 1 -0 -2 -3 -3 -2 -2 -2 -2 -2 -2 -2 -2 -2 -2 -3 -3 -3 -2 -0 1 2 3 3 2 3 3 4 4 3
3 2 1 1 1 1 1 1 0 -0 -1 -3 -3 -3 -3 -3 -2 -2 -2 -2 -3 -2 -2 -3 -3 -3 -3 -3 -1 -0 0 -1 1 1 2 3 2 1
2 1 0 0 0 1 1 0 0 -0 -2 -3 -3 -3 -3 -3 -2 -3 -2 -3 -2 -3 -3 -3 -3 -3 -3 -4 -3 -2 -1 -1 -0 0 1 1 1 1
0 -0 -1 -1 -0 0 0 -0 -1 -1 -2 -2 -3 -3 -3 -4 -4 -3 -3 -3 -2 -2 -3 -2 -3 -2 -3 -4 -5 -4 -3 -3 -3 -2 -1 -1 -1 -1
0 -1 -2 -3 -1 -1 -1 -1 -2 -2 -3 -2 -3 -3 -3 -4 -4 -4 -3 -3 -3 -3 -3 -2 -3 -2 -3 -4 -5 -4 -4 -3 -2 -2 -2 -1 -2 -2
-0 -2 -4 -4 -2 -2 -2 -2 -3 -3 -3 -3 -3 -4 -4 -4 -4 -4 -4 -4 -4 -4 -4 -4 -3 -3 -3 -3 -3 -3 -3 -2 -3 -2 -2 -3 -3 -3
-2 -4 -5 -4 -3 -3 -3 -3 -3 -4 -4 -4 -4 -4 -5 -5 -4 -5 -4 -5 -5 -5 -5 -5 -5 -4 -4 -4 -4 -4 -3 -3 -4 -4 -3 -4 -4 -5
-4 -4 -5 -5 -4 -4 -4 -4 -4 -4 -4 -4 -5 -5 -5 -5 -5 -5 -5 -5 -6 -6 -6 -6 -6 -6 -6 -7 -6 -5 -5 -5 -5 -5 -5 -4 -6 -6
-5 -6 -6 -6 -6 -6 -6 -6 -6 -5 -4 -5 -5 -5 -5 -6 -6 -6 -6 -6 -6 -7 -7 -8 -7 -7 -7 -8 -9 -7 -6 -6 -6 -6 -6 -5 -6 -8
-6 -6 -7 -6 -7 -7 -7 -7 -7 -7 -5 -5 -5 -6 -6 -6 -6 -7 -7 -7 -7 -7 -7 -8 -8 -8 -7 -8 -9 -9 -8 -7 -7 -7 -7 -8 -9 -10
-7 -7 -7 -7 -6 -6 -6 -5 -6 -6 -6 -6 -6 -6 -6 -7 -7 -7 -7 -7 -7 -8 -8 -8 -8 -8 -8 -8 -9 -10 -9 -8 -8 -7 -8 -9 -10 -11
-7 -7 -6 -6 -6 -5 -5 -5 -5 -6 -6 -6 -6 -6 -7 -7 -7 -7 -7 -7 -7 -7 -8 -9 -9 -8 -8 -8 -9 -10 -10 -10 -9 -9 -9 -8 -10 -11
-7 -8 -7 -7 -6 -6 -6 -6 -6 -6 -6 -6 -6 -6 -7 -7 -7 -7 -7 -7 -7 -8 -8 -8 -9 -9 -9 -9 -10 -10 -10 -10 -10 -10 -10 -9 -9 -9

GFSNE_850_temp_234.txt.gz
Temp
13 13 12 12 12 11 12 11 8 9 10 8 6 5 5 6 5 6 6 7 6 5 5 4 3 2 1 -0 -1 -1 1 2 2 3 3 3 4 4
12 12 11 11 11 11 11 10 10 8 7 6 5 3 4 6 5 5 5 6 5 4 4 3 2 1 -1 -1 -1 -0 0 1 2 3 3 3 3 4
12 11 11 10 11 11 10 10 9 8 4 5 3 2 4 4 5 5 5 4 4 3 3 2 1 0 0 0 1 1 1 1 2 2 3 3 2 3
11 10 10 9 9 10 10 9 9 6 5 3 3 3 3 4 4 4 4 3 2 2 1 1 0 1 0 1 1 2 2 2 2 2 3 3 3 4
10 11 12 8 10 10 9 9 7 5 3 4 4 4 3 3 3 3 2 2 2 2 1 1 1 1 1 1 2 2 2 2 2 2 3 3 3 4
10 10 9 9 9 9 8 7 6 5 5 4 3 3 2 2 2 2 3 2 2 1 1 1 1 -0 1 1 2 2 2 2 2 2 2 2 3 4
9 8 9 9 8 8 7 7 5 4 4 4 3 3 1 1 1 1 0 1 2 1 2 1 -0 -0 -1 1 2 2 2 1 2 2 2 3 4 4
8 8 8 7 8 7 7 5 4 4 4 4 3 2 1 -0 -0 -0 -1 -1 -2 -1 -1 1 -0 -1 -1 0 1 1 2 2 2 2 2 3 3 4
8 8 8 8 7 6 6 5 4 4 4 3 3 1 1 -0 -1 -1 -1 -1 -2 -1 -2 1 0 -0 0 -0 -0 1 1 2 2 3 3 3 4 4
8 8 7 6 6 5 4 4 4 4 4 3 2 0 -1 -1 -2 -2 -2 -2 -1 -1 -2 -1 -0 1 0 -0 0 -0 2 3 4 4 3 4 4 4
7 6 6 5 5 4 3 3 3 3 3 2 2 0 -2 -3 -2 -2 -2 -2 -2 -2 -2 -2 -1 -0 0 -1 -1 -1 1 3 4 3 4 4 4 4
6 5 5 4 4 3 3 2 2 2 2 1 0 -1 -3 -3 -3 -2 -2 -2 -2 -3 -3 -2 -1 -2 -1 -1 -2 -2 -1 1 2 3 2 3 3 3
6 5 4 4 3 3 2 2 2 2 1 0 -1 -2 -2 -2 -2 -2 -2 -2 -3 -3 -4 -4 -2 -2 -3 -4 -3 -2 -2 -1 -1 -0 -0 0 1 2
5 4 4 4 3 2 2 2 1 1 0 -0 -1 -1 -2 -2 -2 -2 -2 -3 -3 -3 -3 -4 -3 -3 -4 -4 -4 -4 -3 -3 -3 -3 -2 -2 -1 0
4 3 3 2 2 2 1 1 1 -0 -1 -1 -2 -2 -2 -2 -2 -2 -2 -3 -3 -4 -4 -4 -3 -4 -4 -4 -4 -5 -4 -4 -4 -4 -4 -4 -4 -2
3 3 2 1 0 0 -0 -0 -0 -1 -2 -2 -2 -2 -3 -3 -3 -4 -5 -5 -6 -5 -4 -4 -4 -5 -4 -4 -5 -5 -5 -6 -4 -3 -3 -2 -2 -2
2 0 -1 -2 -1 -2 -2 -2 -2 -2 -3 -3 -3 -3 -3 -4 -5 -6 -6 -6 -6 -7 -5 -5 -5 -5 -5 -5 -5 -5 -6 -5 -5 -4 -3 -3 -3 -3
0 -1 -2 -3 -3 -3 -2 -3 -3 -3 -3 -3 -3 -4 -4 -5 -6 -6 -6 -6 -6 -7 -7 -7 -7 -7 -7 -6 -5 -6 -6 -6 -6 -5 -4 -4 -5 -5
-2 -3 -3 -3 -3 -3 -3 -4 -3 -3 -3 -3 -4 -4 -4 -5 -6 -6 -6 -7 -7 -7 -7 -7 -7 -7 -6 -7 -8 -7 -7 -7 -7 -6 -6 -6 -7 -7
-4 -3 -3 -3 -4 -4 -4 -4 -4 -4 -4 -4 -4 -5 -5 -5 -6 -6 -7 -7 -7 -7 -8 -8 -8 -7 -7 -8 -9 -8 -8 -7 -7 -7 -7 -7 -8 -9
-4 -4 -4 -4 -5 -5 -5 -5 -5 -5 -4 -4 -5 -5 -5 -6 -7 -7 -7 -7 -7 -8 -8 -8 -8 -8 -8 -8 -9 -9 -8 -8 -7 -7 -8 -9 -10 -11
-4 -4 -5 -4 -5 -5 -5 -5 -5 -5 -5 -5 -5 -5 -5 -7 -7 -7 -7 -7 -8 -8 -9 -9 -9 -8 -8 -9 -10 -10 -10 -9 -9 -9 -9 -9 -10 -11
-4 -5 -5 -4 -4 -4 -4 -4 -5 -5 -5 -5 -5 -5 -6 -6 -7 -7 -7 -7 -8 -9 -9 -9 -9 -9 -9 -9 -10 -10 -10 -10 -10 -10 -10 -10 -10 -10

GFSNE_850_temp_237.txt.gz
Temp
14 14 14 13 13 12 12 12 11 11 12 11 10 7 7 7 7 8 7 7 6 6 6 5 5 4 4 3 2 1 1 1 1 1 2 2 3 3
14 14 14 13 13 12 12 11 11 10 10 10 8 7 6 6 5 6 6 7 6 6 6 4 4 4 4 3 2 2 2 2 2 2 2 2 3 3
14 14 13 13 12 12 11 11 11 10 9 8 7 5 5 5 6 6 5 5 4 5 5 5 4 4 4 4 2 2 2 2 2 3 3 3 3 4
14 13 12 12 11 11 11 9 10 10 8 7 6 5 4 4 5 5 4 4 5 5 4 3 4 4 4 5 2 2 2 3 3 3 3 3 3 4
13 13 12 12 12 10 10 10 9 9 7 6 6 5 4 4 5 4 4 4 4 4 4 4 5 6 4 4 3 2 3 3 3 2 3 3 3 3
13 12 11 11 10 10 10 9 9 7 5 6 6 5 4 4 3 3 4 3 4 4 4 3 4 3 4 4 3 2 2 2 3 2 2 3 2 3
12 10 10 9 9 9 9 8 7 7 7 5 4 4 4 3 3 2 2 2 3 3 4 3 4 3 2 3 3 2 2 3 4 3 3 2 2 3
11 10 11 9 9 10 9 8 8 8 5 3 1 1 1 1 1 1 1 1 1 2 3 4 2 2 2 2 1 2 3 4 4 4 4 2 3 3
10 10 9 9 9 9 9 8 7 6 5 4 3 1 1 1 1 1 -0 -1 -1 -0 -1 3 1 2 2 1 1 2 3 4 4 5 4 3 3 4
10 9 9 9 9 9 8 7 6 5 5 4 3 2 2 1 0 -1 -1 -1 -0 -1 -1 -1 0 1 2 1 1 1 2 3 4 4 3 3 4 4
8 8 8 8 8 8 7 7 6 5 4 4 3 2 2 1 -1 -2 -2 -2 -1 -2 -3 -2 -1 -0 1 1 0 -1 -1 -1 2 3 2 3 4 4
8 7 7 7 7 6 6 5 5 4 3 3 2 2 1 0 -1 -2 -2 -2 -3 -3 -3 -2 -2 -4 -3 -2 -2 -1 -1 -2 -1 -1 0 2 3 3
7 7 7 7 6 6 5 5 4 3 3 2 2 1 0 0 -0 -1 -2 -2 -2 -3 -3 -3 -4 -4 -4 -4 -4 -3 -3 -3 -2 -1 -1 -1 0 1
7 6 6 5 5 4 3 3 2 2 2 1 1 0 -0 -1 -2 -2 -3 -3 -3 -3 -3 -4 -5 -5 -5 -4 -5 -4 -4 -4 -4 -3 -3 -3 -3 -3
6 5 5 4 4 4 3 2 2 2 1 0 -0 -1 -1 -2 -2 -2 -4 -4 -4 -4 -4 -4 -4 -5 -5 -5 -5 -5 -5 -6 -5 -5 -3 -3 -3 -2
3 2 2 2 2 1 1 1 1 1 0 -0 -1 -2 -2 -2 -4 -5 -5 -5 -5 -6 -4 -4 -4 -5 -5 -6 -6 -6 -6 -6 -6 -5 -5 -4 -4 -3
2 1 0 -0 1 0 -0 0 0 -0 -1 -2 -2 -2 -3 -4 -5 -5 -5 -5 -6 -6 -6 -6 -6 -6 -6 -6 -6 -7 -6 -6 -6 -5 -4 -3 -3 -3
0 0 -1 -0 -2 -2 -1 -1 -1 -1 -2 -2 -3 -3 -4 -5 -5 -5 -6 -6 -6 -6 -6 -7 -7 -6 -6 -6 -6 -7 -6 -6 -6 -5 -5 -4 -5 -5
0 0 -0 -2 -3 -2 -2 -2 -3 -3 -2 -3 -3 -3 -4 -5 -6 -6 -6 -6 -7 -7 -7 -7 -7 -6 -6 -7 -8 -7 -7 -7 -6 -6 -6 -6 -7 -7
-1 -1 -2 -3 -4 -3 -3 -4 -3 -2 -3 -3 -3 -3 -4 -5 -6 -6 -6 -7 -7 -7 -8 -8 -8 -7 -7 -8 -9 -9 -8 -7 -6 -7 -7 -7 -8 -8
-3 -3 -2 -3 -3 -5 -5 -3 -3 -3 -3 -4 -4 -4 -5 -6 -6 -6 -7 -7 -7 -8 -8 -8 -8 -8 -8 -9 -9 -9 -9 -8 -8 -8 -8 -8 -8 -9
-3 -3 -4 -5 -5 -4 -3 -3 -3 -4 -4 -4 -5 -5 -5 -6 -6 -7 -7 -7 -8 -8 -9 -8 -8 -8 -8 -9 -10 -10 -10 -10 -10 -10 -9 -9 -10 -11
-4 -4 -4 -4 -4 -3 -3 -4 -5 -5 -4 -5 -5 -5 -6 -7 -6 -7 -7 -8 -8 -8 -8 -8 -8 -8 -9 -9 -10 -10 -10 -10 -10 -10 -10 -10 -9 -10